sat.trackr.live / text

‹ back to catalog

STARLINK-34172

NORAD 64173 · 2025-113D

PAYLOAD ACTIVE UNKNOWN

§ Identity

Operator
Country
US
Launch date
2025-05-28
Launch site
AFETR
Launch vehicle
Mass (kg)
RCS (m²)

Purposes: comms

External: N2YO · Heavens-Above · Gunter

§ Orbital elements

Epoch: 2026-05-25T02:31:56.945280Z

Period
94.01 min
Inclination
53.1578°
Eccentricity
0.0000947
Mean motion
15.31715324 rev/d
Perigee alt
470.0 km
Apogee alt
471.3 km
Semi-major
6,848.8 km
B*
8.4115e-4
RAAN
95.5584°
Arg perigee
109.0653°
Mean anomaly
251.0451°
Rev number
5,673

§ Raw data

STARLINK-341721 64173U 25113D   26145.10552020  .00025840  00000+0  84115-3 0  99962 64173  53.1578  95.5584 0000947 109.0653 251.0451 15.31715324 56733

JSON: /api/v1/satellites/64173 · /tle

For live sub-satellite position, see the globe view (requires WebGL).

§ Visibility from observer

Set your observer location to see the next 7 days of passes ≥ 10°. The values pass through the URL so the page stays shareable.

No JS? Fill the form by hand. The geolocation button needs JavaScript.